Wind_Speed
24 29 30 29 28 28 31 35 38 36 33 36 28 32 39 43 35 32 31 30 33 35 41 45 38 32 30 28 24 20 18 19 20 22 23 26 27 25 22 23 24 24 21 21 20 25 25 19 18 15 13 10 9 11
28 33 33 34 35 35 34 36 38 39 38 41 43 40 35 33 31 30 31 32 36 42 43 40 34 30 28 24 20 18 18 19 21 22 25 27 25 22 22 22 22 21 21 21 17 22 26 26 21 19 18 14 12 11
27 35 38 40 39 38 39 39 40 40 40 40 36 34 31 29 28 29 32 37 40 43 41 36 31 27 24 20 18 16 18 19 20 23 23 20 16 17 18 19 17 14 16 15 12 21 22 27 25 21 15 15 14 13
28 34 37 41 42 39 37 38 40 36 35 34 32 30 30 31 32 34 37 39 40 38 35 31 27 23 20 16 15 16 18 18 19 19 15 13 13 12 13 16 22 17 12 10 11 16 20 22 22 20 14 12 12 11
28 29 33 36 39 42 39 35 36 36 33 33 33 30 30 31 33 36 38 41 39 35 31 28 25 20 16 14 14 15 15 16 14 11 11 12 12 12 11 11 14 23 15 10 9 9 16 18 18 15 12 12 10 11
31 32 35 35 35 33 32 32 31 33 35 33 31 30 28 29 31 39 41 42 37 32 29 24 22 17 14 12 12 12 13 10 7 6 7 9 10 10 10 8 9 13 19 7 6 7 10 14 14 12 11 11 11 14
34 37 37 35 36 37 36 36 37 36 35 33 31 30 33 33 35 35 36 34 33 30 26 23 19 15 12 10 9 9 8 6 7 8 8 8 8 9 8 8 9 12 10 9 8 6 6 7 9 11 11 11 12 12
31 35 36 36 36 36 37 37 36 35 34 32 28 28 31 33 31 35 36 32 29 26 23 19 14 11 9 7 7 7 8 8 9 8 9 11 10 9 8 8 10 14 14 11 8 6 5 5 5 6 7 8 10 12
29 30 33 33 36 37 35 33 33 33 30 27 28 34 33 33 32 34 33 29 27 23 18 15 11 9 8 7 8 7 10 11 11 10 11 11 12 10 9 9 9 10 11 10 8 6 6 6 7 8 9 10 13 17
28 28 28 30 30 31 30 31 32 33 32 32 32 32 32 33 34 33 31 27 24 21 17 13 10 7 6 7 7 7 10 13 12 11 11 11 10 10 9 7 11 9 10 10 9 8 8 8 8 8 9 11 14 17
26 26 26 27 27 29 30 29 29 29 29 29 30 29 31 32 33 31 29 26 22 18 14 11 8 5 5 6 7 8 9 12 11 12 11 11 10 7 8 8 8 8 7 7 7 6 6 6 6 7 9 10 12 12
26 27 28 28 28 28 30 30 30 29 27 26 31 33 34 33 31 29 26 22 18 15 11 9 7 5 5 5 7 8 8 8 10 10 10 8 5 4 7 9 8 7 6 6 5 4 4 4 5 5 5 6 8 11
19 22 26 27 29 28 30 32 33 34 35 34 36 35 33 33 31 28 23 18 14 12 10 7 6 5 4 6 7 7 7 8 7 7 3 1 5 8 10 11 8 5 4 4 5 5 5 5 4 4 6 9 12 17
17 21 23 26 27 25 26 27 28 30 31 33 34 34 33 30 24 20 17 14 12 10 7 6 5 4 5 7 6 6 8 7 6 5 8 9 8 6 5 4 4 5 5 5 6 6 5 5 4 6 9 12 16 19
19 23 25 27 27 24 23 26 28 31 33 32 32 30 26 23 19 16 13 12 10 8 7 7 6 6 6 7 6 6 7 6 5 11 12 10 5 3 3 6 7 7 6 6 5 5 5 5 7 9 12 15 19 23
22 24 25 26 27 27 27 27 28 29 29 28 27 25 22 19 16 14 12 10 8 7 7 7 8 7 7 6 6 6 6 6 10 13 13 9 4 4 6 7 6 6 6 7 6 5 5 8 10 13 16 20 24 28
21 22 22 24 24 24 24 24 26 28 27 26 24 20 18 16 14 12 11 10 9 9 8 8 8 9 8 8 8 8 10 11 13 14 12 8 6 5 5 5 6 8 8 8 7 7 9 12 15 18 22 25 30 35
21 23 23 24 25 25 25 25 24 24 23 22 20 19 17 15 14 13 11 10 9 8 8 8 10 10 9 9 9 9 9 11 15 14 11 7 6 7 6 7 8 9 10 10 10 11 14 17 20 23 27 32 36 40
22 22 22 23 24 24 24 22 21 20 19 18 18 17 16 15 15 14 12 11 10 10 9 11 12 9 9 10 10 9 12 14 15 14 12 8 8 8 8 9 10 11 12 14 15 16 18 22 25 28 32 37 41 45
21 20 19 19 19 19 18 18 18 18 18 17 16 16 16 16 15 15 14 12 12 12 13 12 12 10 10 11 12 11 16 17 15 13 12 10 10 11 11 12 13 14 15 17 19 20 23 26 29 33 37 41 46 50
18 17 16 16 16 16 17 17 18 18 18 19 18 18 17 17 17 17 16 16 16 16 15 13 12 11 12 11 13 14 17 19 18 16 14 14 14 14 14 14 15 16 18 20 22 24 27 30 33 37 41 45 49 54
20 18 17 17 17 17 17 18 19 19 19 19 21 21 20 21 20 20 20 21 18 18 15 13 13 12 13 12 12 16 17 17 17 17 17 17 16 15 16 17 19 20 22 24 26 28 30 33 37 41 45 49 53 59
24 23 23 21 20 19 20 20 21 22 22 23 22 23 24 24 25 25 25 23 22 20 16 14 14 14 13 10 10 13 16 17 17 17 17 17 17 17 19 20 22 24 25 27 29 31 33 36 40 44 48 52 57 62
23 23 23 22 22 21 21 20 22 22 23 24 25 26 27 27 27 26 22 23 22 19 17 16 14 13 13 12 11 11 12 12 13 14 15 16 18 20 22 23 24 26 28 30 32 34 36 39 43 47 51 56 60 65
21 20 20 19 19 18 18 17 17 19 20 21 24 26 26 25 26 23 21 21 22 19 17 17 16 15 14 14 13 12 12 13 15 16 18 20 22 24 25 26 27 29 30 32 34 36 38 42 46 50 54 59 64 67
19 19 18 18 17 16 15 16 15 17 18 18 22 22 20 19 21 26 22 20 19 17 16 15 16 17 16 16 16 16 17 18 19 21 23 25 26 27 29 29 30 31 32 34 36 38 41 45 49 53 57 62 65 68
18 16 16 16 16 18 18 17 18 19 19 24 26 25 24 22 24 25 21 18 17 16 15 15 16 16 16 17 17 17 19 21 23 26 27 28 28 30 30 30 31 32 33 36 38 41 44 48 53 56 61 62 65 67
14 17 17 17 18 18 17 18 20 20 25 28 25 23 24 23 21 23 22 19 15 13 14 16 17 18 18 19 19 19 20 23 27 29 30 30 30 30 29 29 30 32 35 38 41 43 47 52 55 59 60 63 64 67
12 11 10 11 12 14 14 16 19 26 27 23 18 24 22 18 19 21 20 18 18 19 20 21 19 20 20 21 22 22 23 26 28 29 29 28 28 27 27 28 31 34 37 40 43 46 50 54 56 57 60 62 65 69
13 12 10 8 7 7 10 18 23 28 27 23 20 19 19 19 21 21 21 20 21 24 25 24 23 21 21 22 24 24 26 25 25 25 25 25 24 25 28 31 34 37 39 42 46 50 52 53 55 57 59 63 67 70
9 7 7 6 6 6 7 12 17 21 27 27 26 25 25 24 23 24 24 27 28 25 23 23 23 23 26 27 27 27 25 23 23 22 22 23 25 27 31 33 36 39 42 45 48 50 50 53 54 56 60 65 68 65
8 7 7 6 5 3 4 5 6 9 12 14 17 18 21 24 24 25 24 23 22 22 22 23 26 25 23 21 21 22 22 21 20 21 22 24 28 30 33 36 38 41 44 46 47 48 51 52 54 58 62 65 64 55
9 8 7 8 10 11 10 9 10 11 10 9 12 15 17 19 20 20 23 25 25 23 23 23 23 23 22 22 21 20 19 20 21 23 25 28 30 33 35 38 41 43 44 45 48 49 50 52 56 60 63 62 53 47
Wind_Direction
154 167 171 174 171 170 171 166 163 176 180 189 188 189 199 202 200 205 213 214 214 211 199 193 182 185 194 205 213 223 241 255 264 275 285 294 297 293 279 266 261 255 237 234 233 226 232 229 223 236 236 249 247 247
151 160 164 166 160 158 167 169 168 169 172 177 186 190 193 194 199 199 204 206 202 196 192 185 182 188 198 207 217 231 247 259 270 284 294 298 298 286 269 265 257 255 242 245 236 227 222 225 230 229 226 243 241 240
155 157 163 160 157 162 163 163 167 169 172 175 180 186 189 190 190 195 198 198 196 192 185 182 185 192 202 211 222 245 259 270 282 294 303 308 304 284 266 251 238 243 242 240 239 225 218 211 214 217 218 232 237 242
162 162 164 162 159 165 164 162 162 169 167 170 177 179 180 187 189 191 194 195 189 185 179 183 187 196 204 216 236 253 265 280 296 308 312 319 326 321 276 254 231 231 239 234 232 223 214 215 212 201 209 222 228 232
162 165 164 164 169 170 167 166 167 169 168 169 169 171 181 186 187 191 192 185 178 178 180 185 191 198 207 226 243 260 279 296 311 316 311 312 320 320 308 261 242 233 249 265 239 222 212 200 193 190 203 217 228 242
162 166 158 164 164 166 169 170 169 167 169 165 165 177 182 189 191 192 187 185 177 176 184 184 190 198 213 228 248 273 292 304 304 304 323 339 334 316 299 269 241 226 233 235 213 205 202 190 189 191 207 222 236 242
160 161 162 169 165 164 167 171 168 162 161 166 169 176 187 190 190 188 183 182 177 178 177 182 188 199 215 235 265 287 283 278 270 300 316 319 330 317 289 273 237 179 196 219 213 212 197 185 192 202 213 224 236 252
149 154 157 157 156 162 162 160 157 158 163 167 169 176 188 192 192 189 183 176 176 177 180 188 196 207 224 244 273 282 256 252 264 282 299 300 300 304 295 253 241 218 195 217 209 199 205 217 225 229 240 256 268 278
147 146 144 146 149 151 153 153 155 157 159 167 177 182 186 188 187 185 178 174 175 177 180 189 196 207 231 255 289 291 250 243 260 275 289 295 289 275 283 249 232 250 216 200 209 219 238 248 250 257 271 287 293 295
143 147 151 148 150 148 148 152 156 159 164 173 178 176 180 182 182 178 173 171 173 178 181 185 201 214 252 284 305 291 249 242 254 270 285 295 293 270 256 257 220 214 221 209 220 222 232 243 257 267 277 285 287 293
145 150 151 152 154 152 153 153 159 159 163 170 171 172 176 179 177 173 172 174 177 179 183 194 206 229 274 296 303 282 264 255 261 270 283 295 287 264 230 217 198 193 203 208 198 194 199 214 234 252 266 275 287 297
142 149 152 155 158 159 160 159 159 156 156 164 170 173 173 173 172 172 174 175 176 180 186 195 210 241 284 304 295 281 266 256 255 274 290 295 286 227 193 187 186 171 164 170 183 199 219 240 247 253 268 285 294 299
142 151 154 157 157 159 159 160 163 163 165 170 171 171 169 174 173 175 174 169 172 180 189 207 229 249 283 301 282 272 255 252 270 282 260 154 126 137 147 149 154 169 203 231 241 252 254 242 242 262 284 300 310 314
145 155 156 159 154 151 156 159 160 163 166 168 171 170 173 172 172 168 168 173 180 188 201 215 230 246 277 288 279 263 247 258 285 225 171 149 143 150 169 200 233 251 261 252 228 218 222 240 267 304 318 318 317 317
155 154 158 158 151 157 167 165 167 170 172 169 170 171 170 168 171 174 175 178 186 197 211 221 234 254 268 272 268 250 245 270 238 194 180 173 172 184 228 254 261 261 247 227 224 227 236 272 310 314 315 316 316 316
158 156 155 154 151 150 154 160 166 167 166 167 171 169 170 170 175 175 177 180 189 197 213 226 236 244 264 265 241 240 236 228 201 193 195 196 223 264 278 270 259 238 229 225 224 243 286 307 313 312 312 313 313 316
159 156 156 156 156 156 160 165 166 170 170 169 167 168 171 176 178 183 190 192 198 209 215 225 231 246 253 241 231 245 235 216 200 197 197 210 232 261 276 249 240 236 229 233 254 283 300 308 308 308 309 311 313 318
170 169 169 168 167 168 172 174 173 173 172 170 170 175 181 188 193 197 198 200 207 215 223 230 240 248 242 232 235 254 236 213 201 195 196 211 243 261 264 260 252 245 245 256 273 290 300 304 304 305 308 311 315 318
179 177 175 175 172 171 171 171 170 171 175 178 183 190 195 199 199 199 200 202 212 223 226 235 243 248 238 231 236 242 208 193 191 197 212 234 253 271 271 270 264 261 261 268 279 290 297 300 303 305 307 312 317 319
180 177 176 175 172 174 179 179 182 187 191 194 197 202 203 204 205 203 206 208 212 218 228 236 240 235 234 235 236 227 206 204 209 218 230 243 260 270 271 273 274 277 278 280 284 289 294 299 303 306 309 314 317 319
191 195 195 194 192 193 192 193 199 199 197 199 201 202 206 208 209 210 209 210 214 220 227 237 235 233 233 237 232 223 214 216 224 238 247 258 268 272 272 275 279 283 287 289 288 289 293 298 303 307 311 315 316 318
194 198 201 203 201 198 198 199 199 203 206 205 208 210 208 210 212 212 214 213 215 222 223 225 230 230 235 238 235 226 223 226 233 242 254 267 274 274 277 281 282 288 293 292 290 291 294 299 303 307 312 314 316 319
186 188 192 196 200 202 203 203 206 209 212 212 212 214 212 211 212 214 215 208 213 223 223 225 227 230 239 247 247 235 235 239 245 256 267 273 278 280 282 285 285 287 291 296 297 296 297 300 304 309 312 314 318 320
191 193 196 200 202 205 208 209 210 212 216 217 215 215 213 214 215 213 205 200 213 220 223 224 227 231 237 242 242 239 240 246 254 262 271 277 282 285 287 290 293 292 292 297 301 300 300 303 306 310 313 316 319 321
185 189 191 194 194 198 202 208 214 219 221 221 220 218 214 212 211 198 193 201 212 218 222 226 227 233 239 243 248 252 259 266 270 275 279 282 283 286 289 291 294 296 296 299 301 302 304 306 309 312 315 318 320 322
191 191 195 195 197 203 205 210 213 218 215 211 204 200 206 205 198 195 200 208 211 215 219 224 229 234 242 250 257 264 271 276 280 283 283 283 285 289 292 293 293 296 298 301 303 305 307 309 311 314 317 320 321 323
197 199 203 206 206 211 216 218 212 210 214 197 187 194 205 204 197 196 201 207 211 217 225 234 240 242 247 253 258 267 274 278 282 284 284 285 285 288 292 291 292 296 300 303 305 307 309 311 313 316 319 320 322 324
179 192 201 212 220 223 222 211 205 204 189 184 189 195 188 190 200 203 205 213 219 236 248 246 243 250 256 261 264 272 283 288 288 287 285 286 287 289 288 289 295 299 302 305 308 309 310 312 315 318 320 322 324 325
180 180 191 201 201 200 202 203 200 190 189 191 190 192 194 202 208 209 218 230 243 250 262 269 263 259 263 267 268 275 285 288 287 286 286 286 286 286 289 293 297 301 304 307 309 310 312 315 317 319 321 324 325 327
130 128 131 142 169 191 197 192 187 189 194 201 203 206 213 220 223 229 233 242 257 261 264 266 262 265 272 275 276 280 289 290 285 284 283 282 284 288 293 298 302 305 307 308 310 312 315 317 318 321 324 325 326 328
115 119 123 135 161 186 204 210 211 212 212 213 218 229 242 245 243 240 247 265 270 266 261 259 258 263 276 277 276 279 279 278 280 278 278 283 288 294 299 302 304 307 308 310 312 314 316 318 321 323 324 326 328 329
154 170 184 196 218 198 206 213 210 217 229 235 240 239 241 244 246 249 252 251 253 255 258 263 268 273 274 275 275 276 277 277 276 278 283 291 296 300 303 305 306 308 310 312 314 315 318 321 323 325 327 327 329 329
206 220 218 222 233 237 239 250 254 253 246 248 245 243 246 247 247 248 249 252 254 257 259 262 264 268 272 275 274 272 271 275 282 288 295 300 302 304 305 306 308 310 313 314 316 319 321 323 324 326 327 329 329 329
Height
5333 5338 5344 5352 5358 5366 5374 5381 5390 5401 5410 5421 5430 5440 5449 5458 5465 5471 5478 5487 5496 5502 5509 5516 5525 5533 5540 5547 5552 5556 5559 5560 5562 5562 5561 5560 5558 5556 5554 5554 5553 5555 5557 5559 5560 5562 5566 5566 5567 5570 5570 5570 5571 5572
5333 5338 5345 5353 5359 5366 5375 5384 5392 5402 5411 5420 5429 5437 5445 5452 5460 5468 5475 5483 5491 5499 5506 5516 5522 5529 5537 5543 5547 5550 5554 5555 5556 5555 5554 5552 5550 5547 5546 5546 5546 5549 5551 5553 5556 5556 5558 5560 5562 5564 5565 5567 5568 5569
5334 5340 5347 5354 5360 5367 5376 5385 5393 5400 5409 5417 5426 5434 5441 5450 5457 5466 5473 5481 5489 5497 5507 5513 5520 5528 5534 5539 5542 5546 5548 5549 5549 5547 5546 5544 5542 5539 5539 5540 5541 5543 5545 5548 5550 5551 5552 5554 5557 5559 5560 5562 5563 5564
5335 5342 5349 5356 5361 5369 5378 5387 5394 5401 5410 5417 5426 5434 5441 5448 5456 5465 5473 5481 5490 5499 5505 5512 5519 5526 5531 5534 5537 5540 5542 5543 5542 5540 5539 5537 5536 5534 5534 5535 5537 5540 5542 5543 5545 5547 5548 5550 5552 5554 5557 5559 5560 5561
5338 5344 5352 5357 5365 5372 5379 5388 5396 5403 5410 5417 5425 5433 5441 5449 5457 5465 5473 5482 5488 5498 5504 5510 5517 5522 5526 5530 5533 5535 5537 5536 5536 5535 5535 5534 5532 5531 5530 5531 5532 5536 5539 5541 5542 5543 5545 5547 5548 5550 5553 5555 5556 5558
5341 5348 5353 5359 5366 5374 5381 5388 5396 5403 5411 5418 5426 5434 5442 5450 5457 5465 5473 5481 5488 5496 5503 5509 5515 5519 5523 5526 5529 5531 5531 5531 5531 5532 5531 5529 5529 5529 5528 5528 5530 5531 5535 5538 5539 5540 5541 5542 5544 5547 5550 5551 5553 5555
5345 5350 5355 5362 5369 5376 5384 5391 5398 5405 5412 5420 5427 5435 5444 5451 5459 5468 5477 5484 5489 5494 5501 5506 5512 5517 5520 5523 5525 5527 5527 5527 5528 5529 5528 5528 5527 5527 5525 5526 5528 5529 5532 5535 5536 5537 5539 5540 5541 5543 5545 5547 5549 5550
5348 5354 5359 5366 5371 5379 5386 5393 5399 5406 5413 5421 5430 5438 5445 5454 5461 5468 5475 5481 5488 5494 5500 5506 5510 5515 5517 5519 5522 5522 5523 5524 5525 5525 5525 5524 5524 5523 5523 5524 5525 5527 5528 5531 5532 5534 5536 5537 5538 5540 5542 5543 5544 5545
5353 5358 5363 5369 5374 5381 5389 5395 5401 5408 5415 5424 5432 5438 5446 5454 5462 5469 5475 5481 5488 5496 5499 5504 5507 5511 5514 5516 5517 5518 5519 5520 5522 5522 5522 5521 5520 5520 5520 5520 5522 5524 5526 5527 5529 5530 5532 5533 5535 5536 5537 5538 5539 5539
5357 5362 5368 5373 5380 5385 5391 5398 5404 5410 5417 5425 5433 5438 5445 5454 5462 5468 5474 5481 5488 5492 5497 5501 5505 5509 5512 5512 5514 5516 5516 5517 5518 5519 5518 5517 5516 5516 5517 5517 5519 5521 5523 5524 5526 5527 5528 5530 5531 5532 5533 5533 5534 5534
5362 5367 5372 5378 5385 5389 5395 5401 5409 5414 5421 5429 5434 5442 5450 5457 5463 5469 5475 5481 5486 5491 5496 5499 5503 5506 5508 5510 5511 5512 5512 5513 5515 5515 5514 5513 5512 5513 5514 5515 5516 5518 5521 5522 5523 5524 5526 5527 5528 5529 5529 5530 5530 5529
5367 5372 5377 5382 5387 5393 5398 5404 5411 5417 5425 5433 5438 5444 5450 5457 5463 5470 5475 5481 5486 5491 5495 5498 5501 5504 5506 5508 5508 5508 5510 5511 5511 5511 5511 5509 5509 5510 5511 5513 5515 5517 5519 5520 5522 5523 5524 5525 5525 5526 5526 5526 5526 5525
5370 5375 5381 5385 5391 5396 5401 5407 5413 5417 5423 5430 5438 5445 5451 5457 5462 5468 5474 5481 5486 5489 5493 5497 5500 5502 5503 5505 5505 5507 5507 5508 5509 5508 5508 5509 5509 5510 5512 5513 5515 5517 5518 5519 5520 5521 5521 5522 5522 5522 5523 5523 5522 5521
5374 5378 5383 5388 5394 5399 5405 5410 5415 5422 5429 5436 5441 5446 5451 5457 5465 5471 5476 5481 5485 5489 5492 5494 5497 5500 5501 5502 5503 5504 5505 5506 5506 5507 5508 5509 5510 5512 5513 5514 5515 5516 5516 5517 5517 5518 5519 5520 5520 5520 5520 5519 5518 5516
5377 5381 5386 5391 5396 5402 5407 5412 5419 5426 5431 5437 5443 5448 5455 5461 5466 5471 5476 5480 5484 5487 5490 5492 5495 5498 5499 5500 5501 5502 5503 5503 5504 5506 5508 5509 5511 5512 5512 5513 5513 5513 5514 5515 5516 5517 5517 5518 5517 5517 5516 5515 5512 5510
5380 5385 5389 5395 5400 5404 5410 5416 5423 5429 5434 5440 5447 5452 5456 5461 5466 5471 5474 5478 5482 5485 5488 5491 5493 5495 5496 5497 5498 5499 5500 5501 5503 5505 5507 5509 5510 5510 5510 5510 5510 5511 5512 5513 5514 5514 5514 5514 5513 5512 5511 5509 5506 5503
5384 5389 5394 5398 5404 5409 5415 5421 5426 5432 5437 5442 5447 5452 5457 5461 5465 5469 5473 5477 5480 5483 5486 5489 5490 5492 5493 5494 5495 5496 5498 5500 5502 5504 5506 5508 5508 5509 5509 5509 5510 5510 5511 5511 5511 5511 5511 5510 5509 5507 5505 5502 5499 5495
5387 5391 5396 5401 5406 5411 5417 5423 5428 5434 5438 5443 5447 5452 5457 5461 5464 5468 5472 5475 5478 5481 5484 5486 5488 5489 5491 5492 5493 5495 5496 5497 5500 5503 5505 5506 5506 5507 5507 5507 5507 5508 5508 5508 5508 5507 5507 5505 5503 5501 5498 5494 5490 5485
5388 5393 5399 5404 5409 5413 5419 5424 5429 5434 5439 5443 5447 5451 5455 5459 5463 5467 5470 5473 5476 5479 5481 5483 5485 5487 5488 5489 5491 5492 5494 5496 5499 5501 5502 5504 5504 5505 5505 5505 5505 5504 5504 5504 5503 5502 5501 5499 5497 5494 5490 5486 5481 5475
5391 5396 5401 5406 5410 5415 5420 5425 5429 5433 5438 5442 5446 5450 5454 5458 5461 5465 5468 5471 5474 5476 5479 5480 5482 5483 5485 5487 5488 5490 5492 5495 5497 5499 5500 5501 5501 5501 5501 5501 5501 5500 5500 5499 5498 5496 5495 5492 5489 5485 5481 5476 5470 5463
5393 5397 5402 5406 5411 5415 5420 5423 5427 5432 5436 5440 5444 5448 5452 5455 5459 5462 5465 5468 5471 5473 5475 5477 5479 5481 5482 5484 5485 5487 5489 5492 5494 5496 5497 5498 5498 5497 5497 5497 5496 5495 5495 5493 5492 5490 5487 5484 5481 5476 5471 5465 5459 5451
5392 5397 5401 5405 5409 5413 5418 5422 5426 5430 5434 5438 5442 5446 5449 5453 5456 5459 5462 5465 5467 5470 5472 5475 5477 5479 5480 5481 5482 5484 5487 5489 5491 5492 5493 5493 5493 5493 5492 5492 5491 5490 5489 5487 5485 5482 5479 5476 5472 5467 5461 5454 5447 5438
5392 5396 5400 5404 5408 5412 5417 5420 5423 5427 5430 5435 5438 5442 5446 5449 5452 5456 5459 5462 5464 5467 5470 5472 5475 5476 5478 5479 5480 5482 5484 5486 5487 5488 5489 5488 5488 5487 5487 5486 5485 5484 5482 5480 5477 5474 5471 5467 5462 5456 5450 5443 5435 5425
5391 5395 5398 5402 5407 5411 5414 5417 5421 5424 5427 5431 5435 5439 5442 5446 5449 5452 5455 5459 5462 5465 5468 5470 5472 5474 5475 5477 5478 5479 5480 5482 5483 5484 5484 5483 5483 5482 5481 5480 5478 5476 5474 5472 5469 5465 5462 5457 5452 5446 5439 5431 5422 5412
5393 5396 5400 5402 5406 5409 5412 5415 5418 5421 5424 5427 5431 5434 5438 5442 5446 5450 5454 5457 5459 5463 5465 5467 5469 5471 5472 5474 5475 5476 5478 5478 5479 5479 5478 5478 5477 5476 5474 5473 5471 5469 5466 5463 5460 5456 5452 5447 5441 5434 5427 5418 5409 5398
5393 5396 5400 5403 5406 5409 5411 5413 5415 5417 5420 5423 5427 5431 5435 5440 5444 5448 5452 5454 5457 5460 5462 5464 5466 5467 5469 5470 5471 5472 5473 5473 5473 5473 5472 5471 5470 5469 5467 5465 5463 5461 5458 5455 5451 5447 5442 5436 5430 5423 5415 5406 5395 5385
5393 5397 5399 5402 5404 5406 5408 5410 5412 5415 5417 5421 5426 5430 5434 5438 5442 5446 5449 5452 5454 5457 5459 5460 5462 5463 5464 5465 5466 5467 5467 5467 5467 5466 5465 5464 5463 5461 5459 5457 5455 5452 5449 5446 5441 5437 5431 5425 5419 5410 5402 5392 5382 5371
5394 5395 5398 5400 5402 5404 5406 5408 5410 5413 5417 5422 5426 5429 5434 5437 5441 5443 5446 5449 5451 5454 5455 5456 5458 5459 5460 5460 5461 5461 5461 5460 5459 5458 5456 5455 5454 5452 5450 5449 5446 5443 5440 5436 5432 5427 5421 5414 5406 5398 5389 5380 5369 5359
5394 5396 5398 5400 5401 5403 5405 5407 5409 5414 5418 5422 5425 5429 5433 5435 5438 5441 5444 5447 5449 5450 5451 5452 5453 5453 5454 5455 5455 5455 5454 5453 5451 5449 5448 5447 5446 5444 5442 5440 5438 5434 5431 5426 5422 5416 5409 5402 5394 5386 5377 5367 5357 5346
5397 5398 5400 5401 5403 5404 5406 5408 5411 5414 5418 5422 5425 5429 5431 5434 5437 5439 5441 5443 5444 5445 5445 5446 5447 5447 5448 5448 5448 5448 5447 5445 5443 5442 5440 5439 5438 5437 5434 5432 5429 5425 5421 5416 5411 5404 5398 5390 5382 5374 5365 5355 5345 5334
5400 5401 5402 5403 5405 5406 5407 5410 5412 5415 5418 5421 5424 5426 5428 5430 5432 5434 5435 5437 5437 5437 5438 5439 5440 5441 5441 5441 5440 5440 5438 5437 5436 5434 5434 5432 5431 5429 5426 5424 5420 5416 5411 5406 5400 5393 5386 5379 5371 5363 5353 5343 5333 5322
5403 5404 5405 5406 5406 5408 5409 5410 5412 5413 5415 5417 5419 5421 5422 5424 5425 5427 5428 5429 5430 5431 5432 5433 5434 5434 5433 5433 5432 5431 5431 5430 5429 5428 5427 5425 5423 5421 5418 5414 5410 5406 5401 5395 5389 5383 5375 5368 5360 5351 5342 5332 5321 5312
5403 5404 5405 5406 5407 5408 5408 5410 5411 5412 5413 5413 5414 5415 5416 5417 5419 5421 5421 5421 5423 5424 5426 5426 5426 5426 5426 5425 5425 5424 5424 5423 5422 5421 5419 5417 5415 5412 5409 5405 5400 5395 5390 5384 5378 5371 5364 5357 5349 5340 5330 5321 5311 5303